Location: Praha
(50.0830°N, 14.4670°E)
Time: 18:59:32
(UTC+02:00)

ISS - Pass Details

Date: 16 July 2021
Orbit: 419 x 421 km, 51.6° (Epoch: 02 August)

Event Time Altitude Azimuth Distance (km) Brightness Sun altitude
Rises 03:46:28 0° 285° (WNW) 2,371 -0.2 -10.5°
Reaches altitude 10° 03:48:50 10° 271° (W) 1,503 -1.3 -10.2°
Maximum altitude 03:51:33 23° 217° (SW) 944 -2.6 -10.0°
Drops below altitude 10° 03:54:16 10° 163° (SSE) 1,495 -1.3 -9.7°
Sets 03:56:37 0° 148° (SSE) 2,354 -0.1 -9.5°
